パンスターズ彗星

253P/PanSTARRS (2024)

English version
Home page
Updated on December 23, 2024

---------------------------------------------------------------------

・ プロフィール

・ 写真集

・ 軌道要素

Epoch 2024 Oct. 17.0 TT = JDT 2460600.5
T 2024 Oct. 20.98377 TT                                 Rudenko
q   2.0267890            (2000.0)            P               Q
n   0.15298487     Peri.  230.81748     +0.95117831     -0.30502544
a   3.4623454      Node   146.86492     +0.30303393     +0.89398856
e   0.4146196      Incl.    4.94412     +0.05856839     +0.32824371
P   6.44
>From 442 observations 1998 Sept. 14-2024 Aug. 31, mean residual 0".6.
     Nongravitational parameters A1 = -0.20, A2 = -0.0062.

・ 光度変化

        m1 = 12.0 + 5 logΔ + 15.0 log r

---------------------------------------------------------------------

軌道要素はM.P.E.C. 2024-R10に掲載されたものです。
光度グラフはComet for Windowsで作成したものです。

---------------------------------------------------------------------

Copyright(C) Seiichi Yoshida (comet@aerith.net). All rights reserved.